Hutchinson, KS

7:19 PM CST on November 23, 2017 (GMT -0600)
Hutchinson Municipal

Weather History for KHUT - February, 2014

Change the Weather History Date:

Saturday, February 8, 2014

  Actual Average Record
Temperature  
Mean Temperature 22 °F -  
Max Temperature 27 °F 42 °F 73 °F (2015)
Min Temperature 17 °F 20 °F 3 °F (2011)
Degree Days  
Heating Degree Days 43    
Moisture  
Dew Point 20 °F    
Average Humidity 87    
Maximum Humidity 92    
Minimum Humidity 81    
Precipitation  
Precipitation 0.00 in - - ()
Sea Level Pressure  
Sea Level Pressure 30.10 in    
Wind  
Wind Speed 7 mph (South)    
Max Wind Speed 15 mph    
Max Gust Speed -    
Visibility 4 miles    
Events      
Averages and records for this station are not official NWS values.
T = Trace of Precipitation, MM = Missing Value Source: NWS Daily Summary

Daily Weather History Graph

Daily Weather History Graph

Search for Another Location

Airport or City:

Trip Planner

Search our weather history database for the weather conditions in past years. The results will help you decide how hot, cold, wet, or windy it might be!

Date:

Astronomy

Feb. 08, 2014 Rise Set
Actual Time 7:29 AM CST 6:02 PM CST
Civil Twilight 7:01 AM CST 6:29 PM CST
Nautical Twilight 6:30 AM CST 7:00 PM CST
Astronomical Twilight 6:00 AM CST 7:31 PM CST
Moon 12:59 PM CST (2/8) 2:41 AM CST (2/8)
Length of Visible Light 11h 27m
Length of Day
10h 33m
Waxing Gibbous, 69% of the Moon is Illuminated
Feb 8
Waxing Gibbous
Feb 14
Full
Feb 22
Last Quarter
Mar 1
New
Mar 8
First Quarter

Hourly Weather History & Observations

Time (CST) Temp. Windchill Dew Point Humidity Pressure Visibility Wind Dir Wind Speed Gust Speed Precip Events Conditions
12:52 AM 17.1 °F 7.6 °F 12.9 °F 84% 30.16 in 6.0 mi South 6.9 mph - N/A   Overcast
1:52 AM 17.1 °F 11.7 °F 12.9 °F 84% 30.15 in 6.0 mi SE 3.5 mph - N/A   Overcast
2:52 AM 18.0 °F 8.7 °F 14.0 °F 84% 30.14 in 6.0 mi SSE 6.9 mph - N/A   Overcast
3:52 AM 19.0 °F 11.1 °F 14.0 °F 81% 30.12 in 6.0 mi SSE 5.8 mph - N/A   Haze
4:52 AM 19.0 °F 12.3 °F 15.1 °F 85% 30.13 in 6.0 mi South 4.6 mph - N/A   Overcast
5:44 AM 19.9 °F 13.4 °F 16.0 °F 85% 30.06 in 6.0 mi SSE 4.6 mph - N/A   Overcast
5:52 AM 19.9 °F 12.1 °F 16.0 °F 85% 30.11 in 5.0 mi SSE 5.8 mph - N/A   Overcast
6:52 AM 19.9 °F 13.4 °F 17.1 °F 89% 30.11 in 4.0 mi SSE 4.6 mph - N/A   Overcast
7:52 AM 21.0 °F 13.4 °F 18.0 °F 88% 30.11 in 2.0 mi South 5.8 mph - N/A   Overcast
8:13 AM 21.0 °F 11.4 °F 18.0 °F 88% 30.05 in 1.8 mi SSE 8.1 mph - N/A   Overcast
8:32 AM 21.9 °F 14.5 °F 19.0 °F 89% 30.06 in 1.8 mi South 5.8 mph - N/A   Overcast
8:52 AM 21.9 °F 15.7 °F 19.9 °F 92% 30.11 in 1.8 mi South 4.6 mph - N/A   Overcast
9:52 AM 23.0 °F 13.1 °F 21.0 °F 92% 30.13 in 2.0 mi South 9.2 mph - N/A   Overcast
9:59 AM 24.1 °F 12.5 °F 21.0 °F 88% 30.07 in 1.8 mi South 12.7 mph - N/A   Overcast
10:08 AM 24.1 °F 13.1 °F 21.0 °F 88% 30.08 in 2.0 mi South 11.5 mph - N/A   Overcast
10:39 AM 25.0 °F 14.2 °F 21.0 °F 85% 30.09 in 3.0 mi SSW 11.5 mph - N/A   Overcast
10:52 AM 25.0 °F 13.6 °F 21.0 °F 85% 30.14 in 4.0 mi SSW 12.7 mph - N/A   Overcast
11:52 AM 26.1 °F 14.0 °F 21.9 °F 84% 30.11 in 5.0 mi SSW 15.0 mph - N/A   Overcast
12:52 PM 26.1 °F 15.0 °F 21.9 °F 84% 30.08 in 5.0 mi SSW 12.7 mph - N/A   Overcast
1:52 PM 26.1 °F 16.2 °F 21.9 °F 84% 30.04 in 4.0 mi South 10.4 mph - N/A   Overcast
2:52 PM 27.0 °F 19.5 °F 23.0 °F 85% 30.04 in 4.0 mi SW 6.9 mph - N/A   Overcast
3:52 PM 27.0 °F 15.6 °F 23.0 °F 85% 30.03 in 3.0 mi South 13.8 mph - N/A   Overcast
4:52 PM 27.0 °F 19.5 °F 23.0 °F 85% 30.04 in 3.0 mi SSW 6.9 mph - N/A   Overcast
5:52 PM 27.0 °F 21.6 °F 23.0 °F 85% 30.07 in 3.0 mi WNW 4.6 mph - N/A   Overcast
6:52 PM 27.0 °F 21.6 °F 24.1 °F 89% 30.10 in 4.0 mi WNW 4.6 mph - N/A   Overcast
7:52 PM 27.0 °F - 24.1 °F 89% 30.11 in 4.0 mi Calm Calm - N/A   Overcast
8:52 PM 27.0 °F - 24.1 °F 89% 30.11 in 3.0 mi Calm Calm - N/A   Overcast
9:52 PM 27.0 °F 23.0 °F 24.1 °F 89% 30.13 in 3.0 mi NNE 3.5 mph - N/A   Overcast
10:07 PM 27.0 °F 21.6 °F 24.1 °F 89% 30.10 in 2.5 mi NNE 4.6 mph - N/A   Overcast
10:18 PM 27.0 °F 21.6 °F 24.1 °F 89% 30.09 in 3.0 mi NE 4.6 mph - N/A   Overcast
10:52 PM 27.0 °F 23.0 °F 24.1 °F 89% 30.14 in 3.0 mi NNE 3.5 mph - N/A   Overcast
11:07 PM 27.0 °F 23.0 °F 24.1 °F 89% 30.11 in 3.0 mi East 3.5 mph - N/A   Overcast
11:22 PM 27.0 °F 23.0 °F 24.1 °F 89% 30.11 in 3.0 mi East 3.5 mph - N/A   Overcast
11:52 PM 27.0 °F 21.6 °F 24.1 °F 89% 30.16 in 3.0 mi NNE 4.6 mph - N/A   Overcast